Tracking 28790 objects as of 18-Apr-2024
HD Live streaming from Space Station
objects crossing your sky now

COSMOS 1759

Track COSMOS 1759 now!
10-day predictions
COSMOS 1759 is classified as:


NORAD ID: 16798
Int'l Code: 1986-047A
Perigee: 971.3 km
Apogee: 1,005.8 km
Inclination: 82.9 °
Period: 104.7 minutes
Semi major axis: 7359 km
RCS: 2.2129 m2 (large)
Launch date: June 18, 1986
Source: Commonwealth of Independent States (former USSR) (CIS)
Launch site: PLESETSK MISSILE AND SPACE COMPLEX (PKMTR)
Your satellite tracking list
Your tracking list is empty




NASA's NSSDC Master Catalog

Two Line Element Set (TLE):
1 16798U 86047A   24108.90362111  .00000137  00000-0  12795-3 0  9992
2 16798  82.9215  55.8410 0023405 299.8964 120.8803 13.75079420898087
Source of the keplerian elements: AFSPC